Content
SEND FEEDBACK

Daily
Averages
Monthly
Summary
United States of America

MERIZO, GUAM


Home > North America > United States > Guam
Elevation: 3 meters     Latitude: 13 14N     Longitude: 144 39E

WEATHER
 
SELECT A DAY
Number of Records: 342,273;   Date Range: 1/1/95 - 8/30/14
 
SHARE

PRINT THIS DATA

[ ← Previous Day ]
WEATHER ALMANAC - 15 OCTOBER, 2013
[ Next Day → ]
[ °F ]   °C
Weather ElementAverageHighLow
Temperature25.9 °C29.2 °C (9:58 am)23 °C (9:08 pm)
Dewpoint24.6 °C26 °C (3:40 pm)22 °C (9:08 pm)
Humidity92.2 %100 % (4:03 pm)77 % (9:58 am)
Barometer1010.2 hPa1011.9 hPa (8:58 am)1008.5 hPa (2:58 pm)
Wind Speed19.6 km/h33.3 km/h (3:47 pm)
Wind Gust42.6 km/h (11:56 pm)
Weather ElementAverage
Visibility14.2 km
Wind DirectionNW (311.6 °)

Weather ElementTotal
Precipitation5.08 mm
Cooling Degree Days7.8 (Base 18.3)
Growing Degree Days16.1 (Base 10)
Averaged from 51 records on 15 October, 2013
WEATHER CONDITIONS BREAKOUT
WIND DIRECTION BREAKOUT
WEATHER BY HOUR - 15 OCTOBER, 2013
[ °F ]   °C
Local TimeTemperatureDewpointHumidityBarometerVisibilityWind DirectionWind SpeedGust SpeedPrecipitationEventsConditions
1:58 AM24.5 °C24 °C97 %1011.2 hPa16.1 kmNW (310°)3.7 km/hClear
2:58 AM25 °C24.5 °C97 %1010.2 hPa16.1 kmNW (320°)5.6 km/hPartly Cloudy
3:58 AM24.1 °C23.7 °C98 %1010.2 hPa16.1 kmNW (310°)1.9 km/hClear
4:58 AM24 °C23.7 °C98 %1010.2 hPa16.1 kmNW (310°)5.6 km/hClear
5:58 AM24.4 °C24 °C98 %1010.2 hPa16.1 kmNW (310°)7.4 km/hClear
6:58 AM25.5 °C25 °C97 %1011.2 hPa16.1 kmNW (320°)9.3 km/hClear
7:58 AM26.6 °C24.5 °C88 %1011.2 hPa16.1 kmNNW (330°)11.1 km/hClear
8:58 AM28.2 °C24.7 °C81 %1011.9 hPa16.1 kmNNW (340°)13 km/hClear
9:58 AM29.2 °C24.7 °C77 %1011.5 hPa16.1 kmNNW (340°)18.5 km/hClear
10:58 AM29.1 °C24.9 °C78 %1011.2 hPa16.1 kmNorth (350°)18.5 km/hClear
11:58 AM29.2 °C25.3 °C79 %1010.2 hPa16.1 kmNNW (340°)18.5 km/hPartly Cloudy
12:58 PM28.7 °C24.8 °C79 %1009.5 hPa16.1 kmNorth (350°)24.1 km/hMostly Cloudy
1:58 PM28.9 °C25 °C79 %1008.8 hPa16.1 kmNNW (330°)18.5 km/hMostly Cloudy
2:18 PM29 °C25 °C79 %1009.5 hPa16.1 kmNW (320°)20.4 km/hMostly Cloudy
2:23 PM29 °C25 °C79 %1009.8 hPa16.1 kmNW (320°)22.2 km/hScattered Clouds
2:58 PM28.4 °C24.9 °C81 %1008.5 hPa16.1 kmNNW (330°)20.4 km/hScattered Clouds
3:01 PM28 °C25 °C84 %1009.5 hPa16.1 kmNW (320°)20.4 km/hRainLight Rain
3:40 PM27 °C26 °C94 %1009.8 hPa16.1 kmNW (320°)16.7 km/hScattered Clouds
3:42 PM27 °C26 °C94 %1010.2 hPa14.5 kmNNW (330°)18.5 km/hRainLight Rain
3:47 PM26 °C25 °C94 %1010.2 hPa1.9 kmNorth (350°)33.3 km/h38.9 km/hRainHeavy Rain
3:52 PM26 °C25 °C94 %1010.2 hPa1.6 kmNorth (350°)22.2 km/h38.9 km/hRainHeavy Rain
3:57 PM26 °C25 °C94 %1010.2 hPa3.2 kmNorth (10°)14.8 km/hRainLight Rain
3:58 PM26 °C25 °C94 %1009.5 hPa3.2 kmNorth (10°)14.8 km/h3.56 mmRainLight Rain
4:03 PM25 °C25 °C100 %1010.5 hPa9.7 kmNorth (360°)13 km/hRainLight Rain
4:08 PM25 °C25 °C100 %1010.5 hPa12.9 kmNorth (350°)27.8 km/h33.3 km/hRainLight Rain
4:13 PM25 °C25 °C100 %1010.5 hPa8 kmNNW (330°)18.5 km/h33.3 km/hRainRain
4:18 PM25 °C24 °C94 %1010.5 hPa6.4 kmNNW (340°)20.4 km/h33.3 km/hRainLight Rain
4:28 PM24 °C23 °C94 %1010.2 hPa14.5 kmNNW (330°)18.5 km/hRainRain
4:33 PM24 °C23 °C94 %1010.5 hPa16.1 kmNW (320°)22.2 km/hRainLight Rain
4:53 PM24 °C24 °C100 %1010.5 hPa9.7 kmNW (320°)20.4 km/hRainRain
4:58 PM24 °C23 °C94 %1009.5 hPa12.9 kmNW (320°)16.7 km/h1.27 mmRainLight Rain
5:08 PM24 °C23 °C94 %1010.5 hPa16.1 kmNNW (330°)14.8 km/hScattered Clouds
5:58 PM24.4 °C23.9 °C97 %1009.5 hPa16.1 kmNW (310°)18.5 km/h0 mmClear
6:58 PM24.7 °C24.4 °C98 %1008.8 hPa16.1 kmNW (310°)22.2 km/hPartly Cloudy
7:58 PM24.7 °C23.8 °C95 %1009.5 hPa16.1 kmNW (310°)20.4 km/h0.25 mmPartly Cloudy
8:58 PM24.8 °C24.3 °C97 %1009.5 hPa16.1 kmNW (310°)20.4 km/hPartly Cloudy
9:08 PM23 °C22 °C94 %1010.2 hPa16.1 kmNW (320°)24.1 km/hMostly Cloudy
9:18 PM24 °C23 °C94 %1010.2 hPa16.1 kmNW (310°)24.1 km/hScattered Clouds
9:58 PM25.4 °C24.7 °C96 %1009.5 hPa16.1 kmNW (310°)20.4 km/hScattered Clouds
10:28 PM26 °C25 °C94 %1010.2 hPa16.1 kmNW (310°)20.4 km/hRainLight Rain
10:33 PM26 °C25 °C94 %1010.2 hPa16.1 kmNW (310°)25.9 km/hRainLight Rain
10:41 PM26 °C25 °C94 %1010.2 hPa16.1 kmNW (320°)25.9 km/hMostly Cloudy
10:46 PM26 °C25 °C94 %1010.2 hPa16.1 kmNW (320°)24.1 km/hMostly Cloudy
10:51 PM26 °C25 °C94 %1010.2 hPa16.1 kmNW (320°)27.8 km/hMostly Cloudy
10:58 PM25.6 °C24.6 °C94 %1009.5 hPa16.1 kmNW (310°)25.9 km/h0 mmMostly Cloudy
11:34 PM26 °C25 °C94 %1009.5 hPa16.1 kmNW (310°)27.8 km/hLight Drizzle
11:39 PM26 °C25 °C94 %1009.5 hPa16.1 kmNW (320°)27.8 km/hRainLight Rain
11:46 PM26 °C25 °C94 %1009.8 hPa16.1 kmNW (310°)27.8 km/hScattered Clouds
11:51 PM26 °C25 °C94 %1009.5 hPa16.1 kmNW (320°)24.1 km/hMostly Cloudy
11:56 PM26 °C25 °C94 %1009.5 hPa16.1 kmNW (320°)27.8 km/h42.6 km/hMostly Cloudy
11:58 PM26.2 °C25.2 °C94 %1008.5 hPa16.1 kmNW (320°)29.6 km/h42.6 km/h0 mmMostly Cloudy
Hourly data recorded from PGUA, located 0 kilometers away from Merizo, Guam







STORIES FROM OUR PARTNERS